GFSCGP_prec_cthk_003.txt.gz
RH
51 52 52 47 46 43 49 53 55 51 50 52 46 42 40 38 39 37 35 33 32 31 32 32 31 34 34 37 41 41 40 38 40 43 47 48 50 54 62 67 73 74 67 57
52 52 47 49 50 51 52 54 53 47 50 50 48 38 37 35 33 34 33 34 32 30 31 31 31 32 35 39 41 41 42 44 44 44 47 51 52 56 62 69 74 73 63 50
51 46 46 49 53 54 54 57 54 55 56 51 48 34 28 25 25 27 29 30 31 31 30 30 32 32 32 38 41 40 44 46 47 49 51 58 62 59 63 67 70 64 59 44
50 46 50 53 55 57 59 58 60 62 68 64 54 49 30 28 28 29 29 30 29 31 31 30 31 32 32 36 41 42 44 46 46 51 54 55 60 59 58 63 64 62 51 47
47 51 54 57 60 65 65 63 65 70 76 76 62 70 36 34 32 30 30 27 27 30 31 30 30 33 35 37 42 43 46 48 50 54 59 54 64 65 56 59 59 50 46 49
56 57 60 62 63 62 62 65 69 70 77 85 62 69 37 32 30 28 30 31 29 28 33 33 33 36 37 40 44 45 46 49 53 58 58 57 63 64 58 59 52 46 47 51
61 62 62 59 59 58 64 77 84 88 89 78 66 76 41 34 35 31 28 31 33 32 35 33 35 38 40 40 44 46 47 51 53 59 61 69 63 58 55 56 49 46 48 52
71 62 58 58 57 62 66 77 85 92 89 80 75 74 44 37 33 29 26 28 32 36 36 37 38 42 43 42 42 46 49 53 56 62 72 69 63 56 58 53 46 47 50 55
68 65 58 60 63 64 79 80 71 97 94 96 74 54 39 33 28 29 32 33 33 28 37 40 38 43 45 45 46 51 55 57 59 67 68 66 62 59 58 53 50 50 53 58
68 70 60 68 72 71 74 78 84 89 96 93 67 58 44 32 28 28 37 40 39 33 35 35 40 44 49 51 54 58 60 61 64 72 70 65 60 56 54 55 55 53 55 60
70 76 73 77 79 73 82 86 91 94 97 92 75 48 40 38 38 43 44 44 41 37 32 35 39 47 55 57 60 64 67 71 67 69 64 60 55 51 55 59 59 58 60 64
74 82 83 72 71 77 81 83 88 93 86 85 79 48 42 40 51 56 48 49 43 41 33 37 41 47 55 61 70 73 74 73 70 65 61 58 54 54 58 61 62 62 64 69
78 87 89 81 84 85 96 91 90 88 91 81 85 53 46 49 53 55 65 62 53 47 40 42 43 50 59 67 73 77 77 76 74 67 61 60 60 59 60 64 65 65 71 72
84 90 87 83 89 98 98 92 94 98 92 77 66 59 51 51 50 59 65 69 60 53 48 48 48 58 66 72 79 78 79 79 75 68 65 65 65 64 63 64 66 71 74 75
88 91 91 93 92 96 97 92 88 89 78 78 58 61 53 57 59 64 70 78 65 57 57 56 61 65 69 75 80 80 81 76 72 69 69 68 67 65 63 67 72 73 74 78
94 94 95 93 94 96 94 85 78 72 72 68 64 57 59 60 60 73 87 77 65 67 70 73 74 75 74 75 78 77 75 72 69 67 64 64 66 63 66 71 71 74 80 83
93 95 94 89 93 98 96 85 77 72 64 65 74 65 64 75 86 94 85 81 74 72 74 77 81 82 79 77 74 70 65 63 62 62 62 63 64 68 69 73 78 81 83 84
93 97 97 93 97 98 97 88 80 71 60 64 69 69 77 86 90 84 80 74 74 74 76 78 78 74 72 69 66 63 61 58 59 61 64 66 68 72 77 80 81 84 81 71
86 96 96 98 98 93 78 85 84 71 70 69 76 79 82 82 88 87 82 78 75 74 76 76 75 72 70 69 66 63 62 63 64 65 68 72 77 80 80 81 82 74 62 43
84 92 95 97 96 93 75 88 80 80 81 74 73 72 77 82 85 83 80 77 76 75 73 73 72 72 71 69 68 64 63 66 69 73 77 79 80 81 81 75 67 50 42 39
80 85 89 90 92 83 75 80 83 79 78 74 72 72 78 83 83 77 74 72 72 73 75 74 70 67 65 64 64 68 72 75 76 78 79 80 80 77 69 52 43 43 39 40
72 80 81 82 84 77 74 78 78 70 71 73 73 74 81 83 83 81 80 79 78 76 78 81 78 75 72 72 75 77 77 78 79 80 80 76 68 52 44 45 42 39 41 38
75 68 69 70 67 65 69 70 67 64 64 67 74 77 76 74 75 78 78 78 77 76 75 77 76 76 77 79 81 81 80 80 79 74 64 49 44 45 45 39 41 42 37 33
72 72 74 70 64 66 69 70 66 65 65 65 70 73 73 70 74 77 78 75 74 74 74 77 78 79 80 80 80 79 74 65 56 50 45 47 46 42 39 43 42 38 34 32
79 77 73 71 68 66 66 69 66 66 68 69 72 71 71 73 75 77 78 75 75 77 79 80 79 77 76 74 71 61 55 49 45 48 47 43 40 40 43 43 40 37 32 29
75 72 74 74 69 70 68 70 68 70 69 68 71 73 75 75 75 75 74 76 78 76 74 74 76 74 70 62 55 46 43 47 47 43 43 40 41 45 45 42 38 32 28 28

GFSCGP_prec_cthk_006.txt.gz
RH
56 54 50 43 43 40 38 40 40 37 37 37 31 28 30 30 30 32 33 33 32 31 30 31 30 31 31 32 35 37 42 44 43 45 47 53 56 56 53 57 60 65 65 68
54 52 44 44 44 45 43 44 41 39 40 39 35 26 27 27 25 26 27 28 31 32 31 29 30 31 31 30 34 35 38 43 44 46 51 54 58 59 58 58 59 60 64 67
47 43 40 46 47 47 46 47 45 44 42 42 42 29 23 22 21 22 24 25 24 28 31 30 29 30 32 31 32 34 36 41 45 49 55 58 58 62 64 65 63 64 66 64
44 43 47 49 49 46 47 44 47 51 52 52 45 39 24 23 23 22 24 24 24 26 27 29 31 29 31 31 31 33 36 38 43 48 56 57 55 59 66 69 68 67 62 60
45 48 51 51 47 50 52 53 54 54 55 55 45 66 26 25 25 25 24 25 25 25 27 29 30 30 31 32 32 32 36 39 42 49 56 60 65 65 66 69 70 64 59 54
47 48 49 51 53 57 56 57 57 57 60 67 36 46 31 22 25 24 25 26 26 28 28 29 35 33 32 33 34 35 38 42 43 46 55 63 64 63 60 65 67 64 57 48
55 55 55 56 58 56 57 61 63 71 74 52 36 49 35 25 28 30 32 30 30 30 30 31 34 34 33 33 34 37 41 42 44 48 55 62 67 66 69 67 61 61 56 52
60 54 54 53 51 52 57 59 59 57 52 51 52 52 27 32 33 34 40 36 29 30 29 29 35 36 35 36 37 41 45 47 47 53 56 61 66 73 71 66 62 59 53 53
64 59 51 52 55 58 67 76 64 78 68 89 62 46 37 35 43 44 45 42 42 36 34 34 35 35 37 41 42 47 51 52 52 54 57 65 70 81 70 65 62 57 55 57
60 66 52 58 63 65 70 73 84 93 88 80 63 57 38 43 48 49 43 44 46 41 37 35 37 38 40 46 49 54 56 57 58 57 62 64 78 75 68 64 61 58 58 58
64 63 65 69 70 64 78 84 91 90 87 81 71 49 48 50 48 56 53 49 44 45 41 37 38 42 44 52 54 56 58 59 61 62 64 74 75 70 66 64 60 60 61 63
66 70 74 67 62 69 73 81 86 96 93 94 81 51 50 46 47 50 49 53 51 52 45 41 42 47 48 55 57 59 63 67 68 71 74 73 82 71 67 63 62 62 66 67
70 80 78 67 75 77 84 81 86 97 97 87 90 47 56 58 58 56 56 53 55 53 51 46 48 51 52 56 60 65 70 75 78 78 73 75 70 67 62 62 65 67 69 71
70 73 77 72 78 80 94 86 87 89 84 75 74 61 66 65 58 55 52 55 63 58 55 49 52 54 57 61 67 74 78 84 84 83 77 70 64 62 63 66 68 70 71 72
76 84 84 81 84 87 94 93 88 81 69 76 52 61 60 64 58 57 52 62 68 61 59 52 54 57 62 68 73 80 87 90 90 85 75 66 65 67 68 70 71 72 74 79
81 84 91 92 89 88 95 91 83 74 71 62 59 55 60 64 62 63 71 79 74 69 62 56 58 62 69 77 80 84 91 92 89 84 74 72 74 72 71 70 72 75 79 84
82 89 93 88 83 83 92 91 81 76 68 66 71 63 68 72 76 88 87 79 74 66 64 65 63 70 80 86 89 92 93 93 90 80 75 80 73 69 70 72 76 79 82 87
82 93 97 95 88 92 86 85 85 78 71 67 72 68 80 89 95 91 84 77 68 70 71 70 75 81 86 90 92 94 92 88 83 81 75 70 68 68 72 76 78 86 89 88
81 90 96 97 97 81 78 82 85 84 77 74 81 82 86 91 90 88 88 82 80 82 84 87 91 92 91 90 88 87 83 78 72 68 66 67 71 74 77 85 88 89 83 70
79 89 94 94 96 87 79 81 87 90 81 78 81 78 87 85 89 83 81 82 84 87 88 89 86 84 81 77 75 74 73 70 70 70 70 72 77 85 87 88 85 76 66 43
79 88 89 91 90 77 77 78 85 77 81 77 76 77 79 83 85 85 81 82 84 84 85 83 80 79 78 77 77 75 73 70 72 75 79 83 86 86 85 79 70 48 38 41
69 79 83 80 80 79 69 75 73 72 73 74 83 85 85 82 80 79 80 82 83 84 83 80 78 75 72 71 72 73 75 79 82 83 84 85 85 80 68 51 41 41 41 40
72 68 69 67 63 62 67 68 68 68 69 73 77 84 85 87 88 88 84 84 83 84 86 86 85 84 81 81 83 86 86 87 86 86 85 75 64 50 44 42 41 41 40 37
73 72 75 70 65 68 67 68 67 67 69 70 79 81 78 74 79 80 81 80 82 82 81 82 84 83 84 86 87 87 86 83 77 67 59 50 44 44 40 41 42 41 38 34
78 78 72 68 65 67 66 68 68 68 71 73 76 76 73 73 76 79 83 81 79 80 82 84 86 85 84 84 84 81 76 65 58 51 45 45 40 39 43 43 42 38 34 32
73 72 68 66 68 69 66 71 69 69 71 72 74 77 79 80 80 79 79 80 84 85 86 85 83 82 82 80 74 65 57 47 45 46 43 38 41 43 45 43 38 33 31 28

GFSCGP_prec_cthk_012.txt.gz
RH
70 70 67 61 57 55 54 53 50 46 39 35 32 30 28 25 24 22 23 25 25 25 26 27 29 27 25 26 33 37 37 38 39 39 42 46 51 54 60 58 58 62 65 63
72 67 60 57 56 53 53 53 49 42 36 34 31 28 25 21 18 18 19 19 19 21 22 23 26 31 30 28 30 35 37 36 37 40 40 44 47 51 54 55 60 64 63 63
72 62 58 56 53 51 49 49 44 41 38 34 31 28 24 19 19 18 18 18 18 18 18 20 21 23 27 30 31 34 35 37 36 41 46 45 47 48 49 55 60 65 66 66
69 63 57 52 51 45 45 41 42 40 42 45 36 46 23 17 16 18 18 16 16 17 17 17 18 21 25 26 31 35 37 37 39 39 40 39 40 42 44 49 55 63 68 69
63 58 57 54 45 41 43 44 42 43 46 48 39 49 23 18 19 18 19 19 20 20 20 20 20 20 23 26 30 32 38 41 39 39 40 43 43 45 46 52 57 62 67 70
57 51 45 42 40 41 44 46 45 47 50 60 42 39 20 20 21 23 22 21 22 23 23 24 22 22 22 23 27 32 36 41 42 46 41 40 44 44 48 52 58 64 66 69
49 46 43 42 44 45 49 53 66 69 70 57 34 40 24 24 25 27 27 25 24 26 29 29 28 26 26 24 25 29 37 40 42 45 44 43 43 45 49 54 61 64 67 69
57 57 46 47 47 52 54 56 61 60 60 52 43 46 30 27 27 25 29 29 31 29 31 37 33 30 29 28 28 29 34 42 43 46 47 48 44 47 52 59 64 68 72 72
58 59 49 51 49 52 58 62 48 61 54 64 47 34 30 34 28 25 26 31 36 36 35 36 32 32 32 33 33 34 36 40 44 46 50 54 49 49 57 64 67 73 74 72
56 62 51 53 51 52 54 50 69 74 79 65 45 44 47 40 38 35 34 40 43 44 41 40 37 34 34 35 35 41 43 45 46 47 51 55 51 55 65 68 72 77 81 75
54 56 61 58 58 53 58 64 69 73 78 83 68 54 45 48 40 38 39 40 51 52 50 44 39 36 36 44 42 40 48 53 52 52 54 56 59 70 72 74 78 81 75 76
55 59 68 61 53 56 60 68 70 84 78 82 79 59 48 49 53 50 49 50 51 56 52 49 50 50 52 58 54 54 62 65 56 56 56 64 72 76 74 74 80 79 80 72
54 65 70 72 66 65 68 68 72 78 80 82 89 59 54 55 64 68 67 66 62 62 58 58 57 62 64 71 69 72 78 72 67 60 64 72 78 77 77 81 84 79 78 73
57 63 65 69 71 69 82 78 78 83 90 80 74 63 57 63 70 76 82 84 77 74 65 66 63 71 72 73 78 86 88 77 71 71 73 78 78 80 80 85 78 84 78 72
63 71 67 72 68 70 77 81 82 89 90 91 73 80 65 75 75 77 79 74 76 73 68 69 71 75 82 90 82 93 91 84 82 79 77 79 81 86 85 83 87 87 76 74
64 75 81 81 73 76 83 80 78 80 84 91 89 87 88 79 81 78 78 72 71 68 72 72 76 81 86 86 85 88 91 92 88 82 78 78 82 79 85 90 85 83 77 71
76 84 85 83 73 78 86 83 88 88 90 91 93 90 86 77 78 84 87 79 78 77 80 80 73 77 82 86 89 91 95 94 88 82 74 81 88 95 92 87 85 78 71 78
78 84 88 91 86 88 75 77 78 82 84 83 85 85 82 79 80 85 86 86 84 80 75 76 72 77 84 88 84 87 93 91 86 85 92 94 96 92 87 84 74 78 86 86
78 86 92 93 90 75 76 77 75 82 83 77 87 85 82 86 88 82 83 81 78 77 73 72 72 76 78 81 84 86 89 90 97 98 95 90 87 81 84 88 87 84 75 79
81 84 85 86 91 85 75 74 73 79 85 75 87 91 88 90 89 91 84 76 76 73 71 71 75 80 84 87 90 91 96 96 98 89 95 93 88 85 85 80 77 80 85 91
83 84 84 88 90 78 68 70 72 80 75 73 81 87 87 90 91 95 94 84 78 78 78 82 86 89 90 96 98 98 98 97 97 94 94 90 84 77 76 79 84 89 83 69
79 79 81 85 88 83 66 69 73 70 73 72 80 84 85 85 90 92 95 97 95 94 96 95 97 96 98 98 97 94 91 85 82 79 77 73 75 80 88 90 81 66 53 41
77 70 71 70 69 63 64 66 69 69 72 71 79 84 81 84 88 90 93 91 93 91 89 88 87 87 88 87 82 77 73 72 71 74 79 85 89 88 76 60 49 40 39 35
73 69 71 66 67 66 64 66 67 67 70 71 79 83 84 84 84 88 89 88 88 86 85 86 86 81 78 76 76 76 77 80 83 86 87 84 71 59 46 39 39 36 36 38
77 75 72 70 66 64 66 66 66 66 71 75 78 83 83 83 83 89 83 87 86 87 86 84 84 82 82 82 83 86 87 87 85 82 70 56 44 38 38 37 38 39 40 38
72 74 75 76 68 66 64 64 67 67 70 75 79 77 76 77 82 83 82 83 87 88 86 86 86 88 88 86 87 86 82 79 70 55 43 39 37 37 39 41 41 39 36 34

GFSCGP_prec_cthk_018.txt.gz
RH
89 85 85 74 70 57 55 56 52 45 41 39 38 35 31 27 27 26 25 24 23 23 23 25 24 24 23 23 24 29 33 33 38 50 53 49 53 50 51 46 52 58 60 62
91 90 87 82 74 68 63 62 56 50 47 43 39 34 30 28 25 23 21 19 19 20 21 22 24 26 27 25 24 23 24 30 32 35 44 54 45 46 51 52 53 56 61 61
81 77 81 77 71 69 63 59 57 55 51 45 41 31 26 21 18 18 17 16 18 17 16 16 19 20 22 24 27 28 27 31 34 36 41 54 61 63 55 57 58 61 63 63
71 62 63 69 67 64 65 58 55 54 51 52 42 47 29 20 18 17 16 17 17 16 16 15 15 17 17 20 24 24 27 28 33 36 39 45 50 53 51 56 57 64 66 66
75 67 66 66 65 62 62 57 53 50 51 48 43 48 29 22 20 17 17 17 17 16 16 16 16 16 16 16 17 21 25 26 29 31 36 46 53 60 55 52 55 60 66 69
70 70 71 68 64 58 59 58 55 51 50 56 39 42 33 22 20 18 18 19 18 19 18 18 19 19 19 19 19 19 21 26 27 31 34 39 51 55 58 56 55 57 62 66
70 72 70 66 65 61 57 58 57 54 61 50 40 46 35 24 22 22 24 23 23 23 23 22 22 21 21 21 21 20 21 23 29 30 35 41 43 51 51 54 53 58 61 66
79 82 72 63 57 55 52 48 52 48 62 56 43 45 31 24 27 28 28 28 28 29 28 26 25 24 25 26 25 24 24 24 26 29 32 42 45 48 52 57 56 56 61 67
76 67 59 54 48 44 52 58 52 59 57 62 46 36 28 32 33 35 36 36 36 35 34 32 30 30 30 31 31 31 30 29 27 26 31 37 41 48 49 53 61 64 69 73
54 62 53 52 50 52 54 53 61 62 62 63 51 49 46 42 40 40 40 42 43 44 45 45 43 41 39 37 36 36 35 34 31 29 30 35 37 47 53 66 66 69 74 74
48 51 56 56 56 57 59 61 55 58 65 73 73 55 45 44 44 46 49 50 52 52 52 52 52 55 50 47 42 35 31 28 26 27 33 31 38 44 63 77 74 71 72 73
49 54 63 60 56 53 53 57 60 69 67 80 81 61 48 48 51 55 58 63 67 67 61 58 64 64 63 56 49 43 37 34 31 28 34 32 40 55 61 78 80 79 72 75
48 57 65 62 59 57 60 61 65 70 78 83 84 60 51 53 57 63 65 67 69 69 64 66 67 71 67 64 55 47 44 37 32 34 38 43 50 65 73 80 87 78 70 73
54 60 58 62 60 61 69 70 72 79 85 76 74 58 57 61 64 68 72 68 67 68 65 66 68 71 68 63 58 54 49 41 42 51 53 54 60 70 83 88 88 76 71 77
55 62 66 64 61 65 71 73 74 79 73 76 59 73 67 71 74 77 76 67 70 73 72 71 70 67 65 63 60 59 57 55 57 62 66 63 70 79 93 89 83 74 79 83
58 69 67 65 61 69 75 75 77 75 74 73 70 74 76 78 81 76 70 73 75 77 82 83 80 76 73 68 67 76 87 78 61 73 76 69 79 89 95 81 71 77 82 89
63 70 70 69 68 77 81 77 77 75 73 74 80 75 77 80 79 79 74 70 70 70 74 80 81 82 76 77 88 91 94 84 75 70 74 79 87 96 85 77 82 83 89 91
69 71 75 75 80 86 73 71 72 73 71 72 72 76 78 83 83 86 77 70 66 68 73 78 80 83 88 94 98 99 99 95 94 98 97 98 94 83 83 85 84 86 95 93
67 71 77 82 90 77 73 76 76 76 70 66 71 71 79 83 85 87 82 74 70 72 74 83 87 86 88 96 99 98 98 98 98 98 97 96 89 85 86 88 93 97 98 98
69 70 81 88 92 84 75 74 74 72 76 66 71 72 75 79 88 89 90 87 77 74 77 82 86 89 85 91 97 98 97 94 89 90 89 86 87 89 92 94 98 95 93 97
77 77 83 88 86 75 68 68 73 76 68 68 72 72 75 78 84 89 90 89 89 84 84 89 90 93 94 92 96 97 96 90 92 98 98 98 98 98 98 98 97 90 86 85
82 83 87 88 86 80 70 74 73 69 70 68 71 74 77 79 81 88 89 91 92 95 94 94 96 97 97 98 98 98 96 96 96 97 96 96 96 90 82 80 81 81 81 68
84 76 79 82 73 65 66 65 64 69 68 68 71 74 81 81 85 85 89 90 92 94 95 96 96 94 91 90 91 90 92 92 90 86 83 80 80 80 80 81 67 48 40 37
75 75 80 81 70 71 67 65 67 70 67 68 71 75 81 82 85 86 85 88 88 89 90 89 90 91 90 90 91 90 91 90 87 85 83 81 73 63 48 40 38 35 34 35
80 77 76 78 76 73 71 71 68 66 67 69 72 76 77 81 83 87 86 85 88 88 91 91 90 87 86 86 85 85 84 85 83 74 62 53 45 40 37 36 36 36 36 36
74 74 72 72 76 76 74 73 70 68 68 69 72 76 77 82 84 85 86 86 88 89 85 85 84 85 82 86 87 85 78 66 54 50 46 40 37 37 38 39 38 37 36 34